Salamanca, Spain

4:24 AM CEST on May 29, 2017 (GMT +0200)
Matacan

Weather History for LESA - February, 2012

Change the Weather History Date:

Saturday, February 4, 2012

  Actual Average Record
Temperature  
Mean Temperature 28 °F -  
Max Temperature 41 °F - - ()
Min Temperature 15 °F - - ()
Degree Days  
Heating Degree Days 37    
Moisture  
Dew Point 15 °F    
Average Humidity 61    
Maximum Humidity 93    
Minimum Humidity 23    
Precipitation  
Precipitation 0.00 in 0.05 in - ()
Sea Level Pressure  
Sea Level Pressure 30.54 in    
Wind  
Wind Speed 4 mph ()    
Max Wind Speed 14 mph    
Max Gust Speed 23 mph    
Visibility 6.6 miles    
Events      
T = Trace of Precipitation, MM = Missing Value Source: Averaged Metar Reports

Daily Weather History Graph

Daily Weather History Graph

Search for Another Location

Airport or City:

Trip Planner

Search our weather history database for the weather conditions in past years. The results will help you decide how hot, cold, wet, or windy it might be!

Date:

Astronomy

Feb. 04, 2012 Rise Set
Actual Time 8:30 AM CET 6:42 PM CET
Civil Twilight 8:01 AM CET 7:10 PM CET
Nautical Twilight 7:28 AM CET 7:43 PM CET
Astronomical Twilight 6:56 AM CET 8:15 PM CET
Moon 3:24 PM CET (2/4) 5:45 AM CET (2/4)
Length of Visible Light 11h 09m
Length of Day
10h 11m
Waxing Gibbous, 87% of the Moon is Illuminated
Feb 4
Waxing Gibbous
Feb 7
Full
Feb 14
Last Quarter
Feb 21
New
Mar 1
First Quarter

Hourly Weather History & Observations

Time (CET) Temp. Windchill Dew Point Humidity Pressure Visibility Wind Dir Wind Speed Gust Speed Precip Events Conditions
12:00 AM 21.2 °F - 15.8 °F 80% 30.48 in - Variable 2.3 mph - N/A   Clear
1:00 AM 22 °F - 16 °F 69%  in 9 mi Calm Calm - -  
1:00 AM 21.2 °F - 15.8 °F 80% 30.48 in - Calm Calm - N/A   Clear
2:00 AM 19.4 °F - 15.8 °F 86% 30.51 in - Variable 2.3 mph - N/A   Clear
3:00 AM 23.0 °F 14.7 °F 15.8 °F 74% 30.51 in - ENE 6.9 mph - N/A   Clear
4:00 AM 21.2 °F 11.7 °F 15.8 °F 80% 30.51 in - NNE 8.1 mph - N/A   Clear
5:00 AM 19.4 °F - 15.8 °F 86% 30.51 in - Variable 2.3 mph - N/A   Clear
6:00 AM 21.2 °F - 15.8 °F 80% 30.54 in - Variable 1.2 mph - N/A   Clear
7:00 AM 22 °F - 15 °F 64%  in 9 mi ENE 3.5 mph - -  
7:00 AM 21.2 °F 16.4 °F 14.0 °F 74% 30.51 in - ENE 3.5 mph - N/A   Clear
7:30 AM 19.4 °F - 15.8 °F 86% 30.54 in - Calm Calm - N/A   Clear
8:00 AM 17.6 °F - 14.0 °F 86% 30.54 in - Variable 1.2 mph - N/A   Clear
8:30 AM 15.8 °F - 14.0 °F 93% 30.54 in - Variable 2.3 mph - N/A   Clear
9:00 AM 15.8 °F - 14.0 °F 93% 30.54 in - Variable 2.3 mph - N/A   Clear
9:30 AM 19.4 °F - 15.8 °F 86% 30.57 in - Variable 1.2 mph - N/A   Clear
10:00 AM 23.0 °F - 17.6 °F 80% 30.57 in - Variable 2.3 mph - N/A   Clear
10:30 AM 24.8 °F - 17.6 °F 74% 30.57 in - Variable 2.3 mph - N/A   Clear
11:00 AM 28.4 °F 23.3 °F 19.4 °F 69% 30.57 in 6.2 mi NNW 4.6 mph - N/A   Partly Cloudy
11:30 AM 30.2 °F 22.6 °F 19.4 °F 64% 30.57 in 6.2 mi NNW 8.1 mph - N/A   Partly Cloudy
12:00 PM 32.0 °F 24.2 °F 15.8 °F 51% 30.57 in 6.2 mi North 9.2 mph - N/A   Partly Cloudy
12:30 PM 33.8 °F 25.8 °F 12.2 °F 41% 30.57 in 6.2 mi North 10.4 mph - N/A   Partly Cloudy
1:00 PM 36 °F - 12 °F 23%  in 9 mi North 10.4 mph - -   Scattered Clouds
1:00 PM 33.8 °F 25.8 °F 10.4 °F 38% 30.57 in 6.2 mi North 10.4 mph - N/A   Partly Cloudy
1:30 PM 35.6 °F 28.6 °F 10.4 °F 35% 30.54 in 6.2 mi North 9.2 mph - N/A   Partly Cloudy
2:00 PM 35.6 °F 28.6 °F 12.2 °F 38% 30.54 in 6.2 mi North 9.2 mph - N/A   Partly Cloudy
2:30 PM 37.4 °F 29.8 °F 8.6 °F 30% 30.54 in 6.2 mi North 11.5 mph - N/A   Partly Cloudy
3:00 PM 37.4 °F 29.8 °F 15.8 °F 41% 30.54 in 6.2 mi NNW 11.5 mph - N/A   Partly Cloudy
3:30 PM 37.4 °F 29.8 °F 15.8 °F 41% 30.54 in 6.2 mi North 11.5 mph 23.0 mph N/A   Partly Cloudy
4:00 PM 39.2 °F 31.2 °F 12.2 °F 33% 30.54 in 6.2 mi North 13.8 mph - N/A   Partly Cloudy
4:30 PM 39.2 °F 33.0 °F 12.2 °F 33% 30.54 in 6.2 mi NNW 9.2 mph - N/A   Partly Cloudy
5:00 PM 39.2 °F 31.2 °F 14.0 °F 36% 30.54 in 6.2 mi North 13.8 mph - N/A   Partly Cloudy
5:30 PM 39.2 °F 33.6 °F 15.8 °F 39% 30.51 in 6.2 mi North 8.1 mph - N/A   Partly Cloudy
6:00 PM 39.2 °F 31.6 °F 15.8 °F 39% 30.51 in 6.2 mi NNW 12.7 mph - N/A   Partly Cloudy
6:30 PM 35.6 °F 29.2 °F 15.8 °F 44% 30.51 in 6.2 mi NNW 8.1 mph - N/A   Partly Cloudy
7:00 PM 35 °F - 17 °F 35%  in 9 mi WNW 4.6 mph - -   Scattered Clouds
7:00 PM 33.8 °F 30.8 °F 17.6 °F 52% 30.54 in 6.2 mi NW 3.5 mph - N/A   Partly Cloudy
8:00 PM 33.8 °F 27.7 °F 17.6 °F 52% 30.54 in 6.2 mi NW 6.9 mph - N/A   Partly Cloudy
9:00 PM 28.4 °F 22.2 °F 19.4 °F 69% 30.54 in 6.2 mi NW 5.8 mph - N/A   Partly Cloudy
10:00 PM 26.6 °F 18.2 °F 21.2 °F 80% 30.57 in 6.2 mi North 8.1 mph - N/A   Partly Cloudy
11:00 PM 24.8 °F 19.1 °F 19.4 °F 80% 30.57 in 6.2 mi NNE 4.6 mph - N/A   Partly Cloudy